This demonstration page uses our WeatherBlox Daily Observations layout. Learn more.

Left ArrowRight Arrow

39.01783, -85.05884

Hourly Observations for December 19, 2020

Temp ( °F °C ) Dew Point ( °F °C ) Humidity (%) Winds ( mph kmh ) Pressure ( in mb ) Visibility ( mi km ) Precip ( " mm )
12:52 am 00:52 Partly Cloudy 31 -0.6 24 -4.4 76 76 S 10 17 30.32 1027 9 14 N/A
1:52 am 01:52 Mostly Cloudy 30 -1.1 24 -4.4 79 79 S 8 13 30.30 1026 9 14 N/A
2:52 am 02:52 Cloudy 31 -0.6 24 -4.4 76 76 SSE 10 17 30.29 1026 10 16 N/A
3:52 am 03:52 Cloudy 30 -1.1 24 -4.4 79 79 SSE 10 17 30.27 1025 9 14 N/A
4:52 am 04:52 Cloudy 30 -1.1 24 -4.4 79 79 S 9 15 30.26 1025 9 14 N/A
5:52 am 05:52 Cloudy 29 -1.7 24 -4.4 82 82 SSE 6 9 30.25 1024 10 16 N/A
6:52 am 06:52 Cloudy 32 undefined 24 -4.4 73 73 S 8 13 30.24 1024 10 16 N/A
7:52 am 07:52 Mostly Cloudy 33 0.6 25 -3.9 72 72 S 9 15 30.24 1024 10 16 N/A
8:52 am 08:52 Cloudy 34 1.1 25 -3.9 70 70 S 10 17 30.22 1024 10 16 N/A
9:52 am 09:52 Cloudy 36 2.2 26 -3.3 67 67 S 12 19 30.22 1024 10 16 N/A
10:52 am 10:52 Cloudy 39 3.9 27 -2.8 62 62 S 14 22 30.21 1023 10 16 N/A
11:52 am 11:52 Cloudy 40 4.4 27 -2.8 60 60 SSW 12 19 30.18 1022 10 16 N/A
12:52 pm 12:52 Cloudy 41 5 28 -2.2 60 60 S 13 20 30.14 1021 10 16 N/A
1:52 pm 13:52 Cloudy 42 5.6 29 -1.7 60 60 SSW 8 13 30.11 1020 10 16 N/A
2:52 pm 14:52 Cloudy 43 6.1 29 -1.7 58 58 SSW 9 15 30.11 1020 10 16 N/A
3:28 pm 15:28 Cloudy 43 6.1 30 -1.1 60 60 SSW 9 15 30.11 1020 10 16 N/A
3:52 pm 15:52 Cloudy 43 6.1 30 -1.1 60 60 SSW 9 15 30.10 1019 10 16 N/A
4:52 pm 16:52 Cloudy 43 6.1 30 -1.1 60 60 S 8 13 30.09 1019 10 16 N/A
5:36 pm 17:36 Cloudy 42 5.6 31 -0.6 65 65 SSW 6 9 30.12 1020 10 16 0.00 0.00
5:52 pm 17:52 Cloudy with Light Rain 42 5.6 32 undefined 68 68 S 9 15 30.10 1019 7 11 0.00 0.00
6:52 pm 18:52 Cloudy 41 5 32 undefined 70 70 S 10 17 30.09 1019 10 16 0.01 0.25
7:43 pm 19:43 Cloudy with Light Rain 39 3.9 35 1.7 86 86 S 9 15 30.10 1019 5 8 0.01 0.25
7:52 pm 19:52 Cloudy with Light Rain 39 3.9 35 1.7 86 86 SSW 8 13 30.09 1019 5 8 0.02 0.51
8:04 pm 20:04 Cloudy with Light Rain 39 3.9 35 1.7 86 86 SSW 8 13 30.11 1020 5 8 0.01 0.25
8:52 pm 20:52 Cloudy with Light Rain 39 3.9 35 1.7 86 86 SSW 8 13 30.09 1019 7 11 0.02 0.51
9:52 pm 21:52 Cloudy with Light Rain 39 3.9 36 2.2 89 89 SSW 9 15 30.07 1018 7 11 0.03 0.76
10:52 pm 22:52 Cloudy with Light Rain 39 3.9 36 2.2 89 89 SSW 13 20 30.06 1018 7 11 0.01 0.25
11:05 pm 23:05 Cloudy with Light Rain 39 3.9 36 2.2 89 89 SSW 13 20 30.08 1019 4 6 0.01 0.25
11:14 pm 23:14 Cloudy with Light Rain 39 3.9 36 2.2 89 89 SSW 9 15 30.08 1019 4 6 0.01 0.25
11:29 pm 23:29 Cloudy with Light Rain 39 3.9 36 2.2 89 89 SSW 9 15 30.08 1019 3 5 0.01 0.25
11:42 pm 23:42 Cloudy with Light Rain 39 3.9 37 2.8 93 93 SSW 10 17 30.07 1018 3 4 0.01 0.25
11:52 pm 23:52 Cloudy with Light Rain 39 3.9 37 2.8 93 93 SSW 8 13 30.04 1017 4 6 0.02 0.51

Powered by AerisWeather